OE3UKW Weather Reports


Display with metric or nautical units.
time (UTC)temp
F
wind
direction
speed
MPH
gust
MPH
rain 1hr
in
rain 24hr
in
rain mn
in
humidity
%
barometer
mb
20260509182113 61 46 1.0 4.0 0.00 0.00 0.00 43 1018.9
20260509181113 61 41 3.0 7.0 0.00 0.00 0.00 43 1018.7
20260509180113 62 63 4.0 11.0 0.00 0.00 0.00 42 1018.8
20260509175113 62 36 8.0 13.0 0.00 0.00 0.00 41 1018.7
20260509174113 64 80 11.0 15.0 0.00 0.00 0.00 40 1018.7
20260509172113 65 49 9.0 14.0 0.00 0.00 0.00 38 1018.4
20260509171113 65 20 6.0 13.0 0.00 0.00 0.00 38 1018.2
20260509170113 65 58 5.0 10.0 0.00 0.00 0.00 38 1018.4
20260509165113 66 59 9.0 12.0 0.00 0.00 0.00 37 1018.4
20260509163113 67 54 12.0 16.0 0.00 0.00 0.00 37 1018.5
20260509162112 67 55 7.0 13.0 0.00 0.00 0.00 37 1018.5
20260509161113 67 51 9.0 13.0 0.00 0.00 0.00 37 1018.5
20260509160112 67 48 8.0 11.0 0.00 0.00 0.00 37 1018.7
20260509155112 67 46 9.0 14.0 0.00 0.00 0.00 35 1018.6
20260509154112 67 52 4.0 6.0 0.00 0.00 0.00 35 1018.6
20260509153112 67 360 4.0 11.0 0.00 0.00 0.00 35 1018.5
20260509151112 67 49 5.0 9.0 0.00 0.00 0.00 35 1018.6
20260509150112 68 10 7.0 14.0 0.00 0.00 0.00 35 1018.7
20260509145112 68 14 8.0 12.0 0.00 0.00 0.00 36 1018.6
20260509144112 68 71 5.0 9.0 0.00 0.00 0.00 36 1018.7
20260509143112 68 32 6.0 11.0 0.00 0.00 0.00 35 1018.7
20260509142112 68 5 9.0 12.0 0.00 0.00 0.00 35 1018.6
20260509141112 68 17 10.0 13.0 0.00 0.00 0.00 36 1018.6
20260509140112 69 5 8.0 16.0 0.00 0.00 0.00 35 1018.9
20260509135112 69 16 5.0 14.0 0.00 0.00 0.00 35 1019.0
20260509134112 69 343 6.0 11.0 0.00 0.00 0.00 35 1019.0
20260509133112 70 360 6.0 12.0 0.00 0.00 0.00 33 1018.9
20260509132112 70 5 10.0 14.0 0.00 0.00 0.00 34 1018.9
20260509131112 69 52 6.0 11.0 0.00 0.00 0.00 35 1018.9
20260509130112 68 34 5.0 12.0 0.00 0.00 0.00 36 1018.9
20260509125112 68 349 11.0 15.0 0.00 0.00 0.00 35 1019.0
20260509124112 68 20 9.0 14.0 0.00 0.00 0.00 36 1019.1
20260509122112 71 57 11.0 15.0 0.00 0.00 0.00 34 1019.2
20260509121111 69 305 7.0 14.0 0.00 0.00 0.00 36 1019.1
20260509120112 68 5 12.0 15.0 0.00 0.00 0.00 35 1019.1
20260509115111 69 56 8.0 14.0 0.00 0.00 0.00 35 1019.2
20260509114111 68 13 6.0 12.0 0.00 0.00 0.00 37 1019.3
20260509113111 68 64 5.0 12.0 0.00 0.00 0.00 35 1019.4
20260509112111 68 74 6.0 12.0 0.00 0.00 0.00 36 1019.4
20260509111111 67 24 9.0 18.0 0.00 0.00 0.00 36 1019.6
20260509110111 67 34 13.0 17.0 0.00 0.00 0.00 36 1019.7
20260509105111 67 26 4.0 14.0 0.00 0.00 0.00 36 1019.8
20260509104111 67 36 6.0 15.0 0.00 0.00 0.00 36 1019.9
20260509103111 68 29 6.0 12.0 0.00 0.00 0.00 39 1019.9
20260509101111 67 28 5.0 13.0 0.00 0.00 0.00 38 1019.8
20260509100111 67 28 7.0 12.0 0.00 0.00 0.00 39 1019.9
20260509095111 67 25 6.0 13.0 0.00 0.00 0.00 40 1019.8
20260509094111 66 10 7.0 11.0 0.00 0.00 0.00 41 1019.9
20260509093111 66 49 6.0 14.0 0.00 0.00 0.00 41 1019.9
20260509091111 65 304 5.0 12.0 0.00 0.00 0.00 44 1020.1
20260509090111 64 26 9.0 14.0 0.00 0.00 0.00 44 1020.4
20260509085111 64 340 5.0 9.0 0.00 0.00 0.00 46 1020.5
20260509083111 62 355 8.0 12.0 0.00 0.00 0.00 48 1020.4
20260509082111 62 5 8.0 10.0 0.00 0.00 0.00 48 1020.5
20260509081111 61 342 8.0 11.0 0.00 0.00 0.00 50 1020.6
20260509080111 61 343 8.0 10.0 0.00 0.00 0.00 51 1020.5
20260509075111 60 19 8.0 11.0 0.00 0.00 0.00 53 1020.5
20260509074110 59 360 7.0 11.0 0.00 0.00 0.00 54 1020.5
20260509073110 58 29 7.0 12.0 0.00 0.00 0.00 54 1020.6
20260509072110 58 5 11.0 13.0 0.00 0.00 0.00 55 1020.5
20260509071110 57 5 7.0 11.0 0.00 0.00 0.00 56 1020.5
20260509070110 57 24 9.0 12.0 0.00 0.00 0.00 56 1020.5
20260509065110 57 360 6.0 11.0 0.00 0.00 0.00 56 1020.4
20260509064110 57 360 10.0 12.0 0.00 0.00 0.00 56 1020.5
20260509063110 57 26 8.0 13.0 0.00 0.00 0.00 57 1020.5
20260509061110 57 9 4.0 9.0 0.00 0.00 0.00 57 1020.0
20260509060110 56 17 6.0 9.0 0.00 0.00 0.00 59 1020.0
20260509055110 55 15 7.0 12.0 0.00 0.00 0.00 59 1019.9
20260509054110 54 355 10.0 12.0 0.00 0.00 0.00 61 1019.9
20260509053110 53 15 4.0 11.0 0.00 0.00 0.00 63 1019.8
20260509051110 52 12 3.0 8.0 0.00 0.00 0.00 65 1019.8
20260509050110 51 323 3.0 4.0 0.00 0.00 0.00 66 1019.6
20260509045110 51 297 3.0 7.0 0.00 0.00 0.00 67 1019.6
20260509044110 50 296 4.0 7.0 0.00 0.00 0.00 67 1019.4
20260509043110 50 306 4.0 8.0 0.00 0.00 0.00 68 1019.4
20260509042110 49 283 5.0 7.0 0.00 0.00 0.00 68 1019.3
20260509041110 49 300 5.0 8.0 0.00 0.00 0.00 68 1019.3
20260509040110 49 288 6.0 8.0 0.00 0.00 0.00 68 1019.3
20260509035110 49 279 5.0 10.0 0.00 0.00 0.00 67 1019.3
20260509034110 49 276 6.0 9.0 0.00 0.00 0.00 67 1019.5
20260509033110 49 275 7.0 9.0 0.00 0.00 0.00 67 1019.4
20260509032110 50 299 7.0 9.0 0.00 0.00 0.00 67 1019.4
20260509030110 50 291 6.0 9.0 0.00 0.00 0.00 67 1019.4
20260509025110 50 306 7.0 12.0 0.00 0.00 0.00 66 1019.3
20260509024110 50 300 5.0 10.0 0.00 0.00 0.00 66 1019.2
20260509022110 51 343 3.0 12.0 0.00 0.00 0.00 65 1019.2
20260509020110 51 331 3.0 10.0 0.00 0.00 0.00 65 1019.4
20260509015110 52 334 6.0 12.0 0.00 0.00 0.00 64 1019.3
20260509014109 52 355 10.0 14.0 0.00 0.00 0.00 64 1019.3
20260509013110 52 347 6.0 11.0 0.00 0.00 0.00 64 1019.2
20260509012109 53 344 9.0 11.0 0.00 0.00 0.00 63 1019.2
20260509011110 53 355 8.0 11.0 0.00 0.00 0.00 63 1019.2
20260509005113 53 343 11.0 14.0 0.00 0.00 0.00 63 1019.2
20260509004113 53 320 8.0 12.0 0.00 0.00 0.00 63 1019.2
20260509003113 53 333 8.0 14.0 0.00 0.00 0.00 64 1019.1
20260509002113 53 333 9.0 12.0 0.00 0.00 0.00 64 1019.2
20260509001113 53 296 5.0 10.0 0.00 0.00 0.00 63 1019.3
20260509000113 53 316 5.0 13.0 0.00 0.00 0.00 63 1019.3
20260508234112 53 345 10.0 16.0 0.00 0.00 0.00 63 1019.3
20260508233112 54 334 8.0 13.0 0.00 0.00 0.00 63 1019.3
20260508232113 54 20 9.0 16.0 0.00 0.00 0.00 63 1019.2
20260508231112 53 323 10.0 13.0 0.00 0.00 0.00 63 1019.3
20260508230113 53 355 11.0 16.0 0.00 0.00 0.00 64 1019.4
20260508225113 53 319 7.0 13.0 0.00 0.00 0.00 64 1019.4
20260508224112 53 310 5.0 8.0 0.00 0.00 0.00 63 1019.6
20260508223112 54 302 5.0 8.0 0.00 0.00 0.00 63 1019.5
20260508222112 54 288 3.0 9.0 0.00 0.00 0.00 62 1019.6
20260508221112 54 281 6.0 9.0 0.00 0.00 0.00 62 1019.4
20260508220112 55 312 5.0 9.0 0.00 0.00 0.00 61 1019.3
20260508215112 55 299 4.0 6.0 0.00 0.00 0.00 60 1019.3
20260508214112 55 284 4.0 8.0 0.00 0.00 0.00 59 1019.2
20260508213112 56 293 5.0 7.0 0.00 0.00 0.00 59 1019.3
20260508211112 57 300 4.0 7.0 0.00 0.00 0.00 57 1019.2
20260508210112 57 20 4.0 10.0 0.00 0.00 0.00 57 1019.1
20260508205112 58 23 5.0 12.0 0.00 0.00 0.00 57 1019.1
20260508204112 58 33 6.0 13.0 0.00 0.00 0.00 57 1019.0
20260508203112 58 39 6.0 10.0 0.00 0.00 0.00 56 1018.9
20260508202112 58 12 7.0 11.0 0.00 0.00 0.00 55 1018.8
20260508201112 59 355 7.0 11.0 0.00 0.00 0.00 55 1018.7
20260508200112 59 16 5.0 10.0 0.00 0.00 0.00 55 1018.7
20260508195112 59 5 6.0 10.0 0.00 0.00 0.00 54 1018.5
20260508194112 60 24 6.0 12.0 0.00 0.00 0.00 53 1018.3
20260508192112 61 40 9.0 12.0 0.00 0.00 0.00 49 1018.2
20260508191112 61 30 9.0 14.0 0.00 0.00 0.00 47 1018.1
20260508190112 61 38 8.0 11.0 0.00 0.00 0.00 45 1017.9
20260508185112 61 360 4.0 5.0 0.00 0.00 0.00 44 1017.6
20260508184112 63 24 2.0 3.0 0.00 0.00 0.00 42 1017.5